"Date","subscriberCount","subscriberChange","viewCount","viewChange","videoCount","videoChange","commentCount","commentChange"
"2020-10-15 00:02:04","2780000","0","2395539512","25","2171","0","0","0"
"2020-10-16 00:02:04","2780000","0","2398805358","3265846","2171","0","0","0"
"2020-10-17 00:02:03","2780000","0","2400675308","1869950","2172","1","0","0"
"2020-10-18 00:02:04","2790000","10000","2403216365","2541057","2173","1","0","0"
"2020-10-19 00:02:04","2790000","0","2406084666","2868301","2174","1","0","0"
"2020-10-20 00:02:04","2790000","0","2408419038","2334372","2174","0","0","0"
"2020-10-21 00:02:03","2790000","0","2410652564","2233526","2175","1","0","0"
"2020-10-22 00:02:03","2790000","0","2413019624","2367060","2176","1","0","0"
"2020-10-23 00:02:04","2790000","0","2415450009","2430385","2176","0","0","0"
"2020-10-24 00:02:04","2800000","10000","2417503207","2053198","2177","1","0","0"
"2020-10-25 00:02:04","2800000","0","2419339057","1835850","2178","1","0","0"
"2020-10-27 00:02:04","2800000","0","2424762569","5423512","2179","1","0","0"
"2020-10-28 00:02:03","2800000","0","2426547025","1784456","2180","1","0","0"
"2020-10-29 00:02:03","2800000","0","2428742322","2195297","2181","1","0","0"
"2020-10-30 00:02:02","2800000","0","2430678804","1936482","2181","0","","0"
"2020-10-31 00:02:03","2800000","0","2432325495","1646691","2182","1","0","0"
"2020-11-01 00:02:03","2800000","0","2434346066","2020571","2183","1","","0"
"2020-11-02 00:02:02","2810000","10000","2436874921","2528855","2184","1","0","0"
"2020-11-03 00:02:03","2810000","0","2439102085","2227164","2184","0","0","0"
"2020-11-04 00:02:03","2810000","0","2441452568","2350483","2185","1","0","0"
"2020-11-05 00:02:05","2810000","0","2443205328","1752760","2186","1","0","0"
"2020-11-06 00:02:03","2810000","0","2445463872","2258544","2186","0","0","0"
"2020-11-07 00:02:04","2810000","0","2447125221","1661349","2187","1","0","0"
"2020-11-08 00:02:04","2810000","0","2449612572","2487351","2188","1","0","0"
"2020-11-09 00:02:06","2810000","0","2452245373","2632801","2189","1","0","0"
"2020-11-10 00:02:04","2810000","0","2454498028","2252655","2190","1","0","0"
"2020-11-11 00:02:04","2820000","10000","2456561789","2063761","2190","0","0","0"
"2020-11-12 00:02:03","2820000","0","2458522571","1960782","2191","1","","0"
"2020-11-13 00:02:03","2820000","0","2460533096","2010525","2191","0","","0"
"2020-11-14 00:02:02","2820000","0","2462423787","1890691","2192","1","","0"
"2020-11-15 00:02:02","2820000","0","2464656872","2233085","2193","1","","0"
"2020-11-16 00:02:03","2820000","0","2467258053","2601181","2194","1","","0"
"2020-11-17 00:02:02","2820000","0","2469308404","2050351","2194","0","","0"
"2020-11-18 00:02:03","2820000","0","2471137714","1829310","2195","1","","0"
"2020-11-19 00:02:02","2830000","10000","2473388596","2250882","2196","1","","0"
"2020-11-20 00:02:03","2830000","0","2475819579","2430983","2196","0","","0"
"2020-11-21 00:02:02","2830000","0","2477763241","1943662","2197","1","","0"
"2020-11-22 00:02:02","2830000","0","2480475299","2712058","2198","1","","0"
"2020-11-23 00:02:03","2830000","0","2483160716","2685417","2199","1","","0"
"2020-11-24 00:02:02","2840000","10000","2486041309","2880593","2199","0","","0"
"2020-11-25 00:02:02","2840000","0","2488090333","2049024","2200","1","","0"
"2020-11-26 00:02:03","2840000","0","2490299948","2209615","2201","1","","0"
"2020-11-27 00:02:03","2840000","0","2492518759","2218811","2201","0","","0"
"2020-11-28 00:02:02","2840000","0","2494323872","1805113","2202","1","","0"
"2020-11-29 00:02:02","2840000","0","2496478325","2154453","2203","1","","0"
"2020-11-30 00:02:03","2840000","0","2499169885","2691560","2204","1","","0"
"2020-12-01 00:02:02","2850000","10000","2501188319","2018434","2204","0","","0"
"2020-12-02 00:02:03","2850000","0","2503339578","2151259","2205","1","","0"
"2020-12-03 00:02:02","2850000","0","2505631075","2291497","2206","1","","0"
"2020-12-04 00:02:02","2850000","0","2507990602","2359527","2206","0","","0"
"2020-12-05 00:02:05","2850000","0","2509799776","1809174","2207","1","","0"
"2020-12-06 00:02:03","2850000","0","2512230820","2431044","2208","1","","0"
"2020-12-07 00:02:02","2850000","0","2514945482","2714662","2209","1","","0"
"2020-12-08 00:02:03","2850000","0","2517004923","2059441","2209","0","","0"
"2020-12-09 00:02:03","2860000","10000","2518925715","1920792","2210","1","","0"
"2020-12-10 00:02:03","2860000","0","2520988152","2062437","2211","1","","0"
"2020-12-11 00:02:03","2860000","0","2522813143","1824991","2211","0","","0"
"2020-12-12 00:02:03","2860000","0","2524432398","1619255","2212","1","","0"
"2020-12-13 00:02:03","2860000","0","2526752248","2319850","2213","1","","0"
"2020-12-14 00:02:04","2860000","0","2529178824","2426576","2214","1","","0"
"2020-12-15 00:02:04","2860000","0","2531214793","2035969","2214","0","","0"
"2020-12-16 00:02:03","2860000","0","2532923677","1708884","2215","1","","0"
"2020-12-17 00:02:04","2870000","10000","2534814431","1890754","2216","1","","0"
"2020-12-18 00:02:03","2870000","0","2536764826","1950395","2216","0","","0"
"2020-12-19 00:02:04","2870000","0","2538190181","1425355","2217","1","","0"
"2020-12-20 00:02:03","2870000","0","2540276973","2086792","2218","1","","0"
"2020-12-21 00:02:04","2870000","0","2542510889","2233916","2219","1","","0"
"2020-12-22 00:02:03","2870000","0","2544128634","1617745","2219","0","","0"
"2020-12-23 00:02:02","2870000","0","2545701184","1572550","2220","1","","0"
"2020-12-24 00:02:04","2870000","0","2547606987","1905803","2221","1","","0"
"2020-12-25 00:02:03","2870000","0","2549535848","1928861","2221","0","","0"
"2020-12-26 00:02:03","2870000","0","2551237498","1701650","2222","1","","0"
"2020-12-27 00:02:02","2880000","10000","2553331038","2093540","2223","1","","0"
"2020-12-28 00:02:04","2880000","0","2555753245","2422207","2224","1","","0"
"2020-12-29 00:02:03","2880000","0","2558188336","2435091","2223","-1","","0"
"2020-12-30 00:02:03","2880000","0","2560250717","2062381","2226","3","","0"
"2020-12-31 00:02:02","2880000","0","2562694977","2444260","2227","1","","0"
"2021-01-01 00:02:03","2880000","0","2565178129","2483152","2228","1","","0"
"2021-01-02 00:02:04","2880000","0","2567261920","2083791","2229","1","","0"
"2021-01-03 00:02:04","2880000","0","2569630640","2368720","2230","1","","0"
"2021-01-04 00:02:04","2890000","10000","2572471076","2840436","2231","1","","0"
"2021-01-05 00:02:05","2890000","0","2575168660","2697584","2231","0","","0"
"2021-01-06 00:02:03","2890000","0","2577594579","2425919","2232","1","","0"
"2021-01-07 00:02:02","2890000","0","2580296871","2702292","2233","1","","0"
"2021-01-08 00:02:02","2890000","0","2583099541","2802670","2233","0","","0"
"2021-01-09 00:02:02","2900000","10000","2585206867","2107326","2234","1","","0"
"2021-01-10 00:02:02","2900000","0","2587911846","2704979","2235","1","","0"
"2021-01-11 00:02:02","2900000","0","2590685649","2773803","2236","1","","0"
"2021-01-12 00:02:03","2900000","0","2593421970","2736321","2236","0","","0"
"2021-01-13 00:02:02","2900000","0","2595471732","2049762","2237","1","","0"
"2021-01-14 00:02:02","2900000","0","2597667050","2195318","2238","1","","0"
"2021-01-15 00:02:03","2910000","10000","2599879177","2212127","2238","0","","0"
"2021-01-16 00:02:02","2910000","0","2601750911","1871734","2238","0","","0"
"2021-01-17 00:02:02","2910000","0","2603555042","1804131","2239","1","","0"
"2021-01-18 00:02:03","2910000","0","2606340694","2785652","2240","1","","0"
"2021-01-19 00:02:02","2910000","0","2608389613","2048919","2240","0","","0"
"2021-01-20 00:02:02","2910000","0","2610095334","1705721","2241","1","","0"
"2021-01-21 00:02:02","2910000","0","2612219591","2124257","2242","1","","0"
"2021-01-22 00:02:02","2910000","0","2614092635","1873044","2242","0","","0"
"2021-01-23 00:02:03","2910000","0","2616004624","1911989","2243","1","","0"
"2021-01-24 00:02:02","2920000","10000","2618723008","2718384","2244","1","","0"
"2021-01-25 00:02:02","2920000","0","2622034073","3311065","2245","1","","0"
"2021-01-26 00:02:03","2920000","0","2624556037","2521964","2245","0","","0"
"2021-01-27 00:02:03","2920000","0","2626673420","2117383","2246","1","","0"
"2021-01-28 00:02:02","2930000","10000","2628979244","2305824","2247","1","","0"
"2021-01-29 00:02:03","2930000","0","2631087322","2108078","2247","0","","0"
"2021-01-30 00:02:02","2930000","0","2632972978","1885656","2248","1","","0"
"2021-01-31 00:02:02","2930000","0","2635553495","2580517","2249","1","","0"
"2021-02-01 00:02:02","2930000","0","2638474636","2921141","2250","1","","0"
"2021-02-02 00:02:02","2930000","0","2640983082","2508446","2250","0","","0"
"2021-02-03 00:02:03","2940000","10000","2643064290","2081208","2251","1","","0"
"2021-02-04 00:02:03","2940000","0","2645437433","2373143","2252","1","","0"
"2021-02-05 00:02:02","2940000","0","2648127472","2690039","2252","0","","0"
"2021-02-06 00:02:03","2940000","0","2650650591","2523119","2253","1","","0"
"2021-02-07 00:02:02","2950000","10000","2653902271","3251680","2254","1","","0"
"2021-02-08 00:02:03","2950000","0","2657744843","3842572","2255","1","","0"
"2021-02-09 00:02:02","2960000","10000","2660673718","2928875","2255","0","","0"
"2021-02-10 00:02:03","2960000","0","2663509225","2835507","2256","1","","0"
"2021-02-11 00:02:02","2970000","10000","2666313743","2804518","2257","1","","0"
"2021-02-12 00:02:02","2970000","0","2670696869","4383126","2257","0","","0"
"2021-02-13 00:02:02","2980000","10000","2673399751","2702882","2258","1","","0"
"2021-02-14 00:02:03","2990000","10000","2677030401","3630650","2259","1","","0"
"2021-02-15 00:02:02","2990000","0","2680784357","3753956","2260","1","","0"
"2021-02-16 00:02:02","3000000","10000","2684416773","3632416","2260","0","","0"
"2021-02-17 00:02:02","3010000","10000","2687356267","2939494","2261","1","","0"
"2021-02-18 00:02:02","3010000","0","2690962592","3606325","2262","1","","0"
"2021-02-19 00:02:02","3010000","0","2694038386","3075794","2262","0","","0"
"2021-02-20 00:02:03","3020000","10000","2696706068","2667682","2263","1","","0"
"2021-02-21 00:02:02","3020000","0","2700363621","3657553","2264","1","","0"
"2021-02-22 00:02:03","3030000","10000","2703931300","3567679","2265","1","","0"
"2021-02-23 00:02:02","3030000","0","2707188566","3257266","2265","0","","0"
"2021-02-24 00:02:02","3040000","10000","2710754145","3565579","2266","1","","0"
"2021-02-25 00:02:02","3040000","0","2713967379","3213234","2267","1","","0"
"2021-02-26 00:02:02","3040000","0","2716912097","2944718","2267","0","","0"
"2021-02-27 00:02:02","3040000","0","2719601880","2689783","2268","1","","0"
"2021-02-28 00:02:02","3050000","10000","2722604995","3003115","2269","1","","0"
"2021-03-01 00:02:02","3050000","0","2726181093","3576098","2270","1","","0"
"2021-03-02 00:02:03","3060000","10000","2729267905","3086812","2270","0","","0"
"2021-03-03 00:02:02","3060000","0","2732056378","2788473","2271","1","","0"
"2021-03-04 00:02:02","3060000","0","2735269993","3213615","2272","1","","0"
"2021-03-05 00:02:02","3060000","0","2736085985","815992","2272","0","","0"
"2021-03-06 00:02:02","3070000","10000","2738812177","2726192","2273","1","","0"
"2021-03-07 00:02:02","3070000","0","2741454024","2641847","2274","1","","0"
"2021-03-08 00:02:02","3070000","0","2744935515","3481491","2275","1","","0"
"2021-03-09 00:02:02","3070000","0","2748374280","3438765","2275","0","","0"
"2021-03-10 00:02:02","3080000","10000","2751030000","2655720","2276","1","","0"
"2021-03-11 00:02:02","3080000","0","2753469135","2439135","2277","1","","0"
"2021-03-12 00:02:02","3080000","0","2756297721","2828586","2277","0","","0"
"2021-03-13 00:02:02","3080000","0","2758963246","2665525","2278","1","","0"
"2021-03-14 00:02:03","3090000","10000","2761593302","2630056","2279","1","","0"
"2021-03-15 00:02:02","3090000","0","2764841862","3248560","2280","1","","0"
"2021-03-16 00:02:01","3090000","0","2768159095","3317233","2280","0","","0"
"2021-03-17 00:02:02","3090000","0","2770722048","2562953","2281","1","","0"
"2021-03-18 00:02:02","3090000","0","2773251752","2529704","2282","1","","0"
"2021-03-19 00:02:02","3100000","10000","2776308555","3056803","2283","1","","0"
"2021-03-20 00:02:02","3100000","0","2779066138","2757583","2283","0","","0"
"2021-03-21 00:02:02","3100000","0","2781811955","2745817","2284","1","","0"
"2021-03-22 00:02:02","3100000","0","2784323092","2511137","2285","1","","0"
"2021-03-23 00:02:03","3110000","10000","2787689206","3366114","2284","-1","","0"
"2021-03-24 00:02:02","3110000","0","2790044043","2354837","2283","-1","","0"
"2021-03-25 00:02:02","3110000","0","2791820416","1776373","2284","1","","0"
"2021-03-26 00:02:02","3110000","0","2792435297","614881","2285","1","","0"
"2021-03-27 00:02:01","3110000","0","2794888458","2453161","2285","0","","0"
"2021-03-28 00:02:03","3120000","10000","2797797488","2909030","2286","1","","0"
"2021-03-29 00:02:03","3120000","0","2800523018","2725530","2287","1","","0"
"2021-03-30 00:02:02","3120000","0","2803438556","2915538","2287","0","","0"
"2021-03-31 00:02:02","3120000","0","2806092638","2654082","2288","1","","0"
"2021-04-01 00:02:02","3120000","0","2808863666","2771028","2289","1","","0"
"2021-04-02 00:02:02","3130000","10000","2811861022","2997356","2289","0","","0"
"2021-04-03 00:02:02","3130000","0","2814483591","2622569","2290","1","","0"
"2021-04-04 00:02:02","3130000","0","2817296118","2812527","2291","1","","0"
"2021-04-05 00:02:02","3130000","0","2820280799","2984681","2292","1","","0"
"2021-04-06 00:02:02","3140000","10000","2822862899","2582100","2292","0","","0"
"2021-04-07 00:02:02","3140000","0","2825905343","3042444","2293","1","","0"
"2021-04-08 00:02:03","3140000","0","2828551547","2646204","2294","1","","0"
"2021-04-09 00:02:02","3140000","0","2831058297","2506750","2294","0","","0"
"2021-04-10 00:02:03","3140000","0","2833173113","2114816","2295","1","","0"
"2021-04-11 00:02:03","3140000","0","2835331304","2158191","2296","1","","0"
"2021-04-12 00:02:02","3140000","0","2837966740","2635436","2297","1","","0"
"2021-04-13 00:02:03","3150000","10000","2840716660","2749920","2297","0","","0"
"2021-04-14 00:02:03","3150000","0","2843457782","2741122","2298","1","","0"
"2021-04-15 00:02:03","3150000","0","2846038586","2580804","2299","1","","0"
"2021-04-16 00:02:03","3150000","0","2848760177","2721591","2299","0","","0"
"2021-04-17 00:02:03","3150000","0","2851050673","2290496","2299","0","","0"
"2021-04-18 00:02:03","3160000","10000","2853312846","2262173","2300","1","","0"
"2021-04-19 00:02:03","3160000","0","2855929097","2616251","2301","1","","0"
"2021-04-20 00:02:03","3160000","0","2859496657","3567560","2301","0","","0"
"2021-04-21 00:02:02","3160000","0","2861733793","2237136","2302","1","","0"
"2021-04-22 00:02:02","3170000","10000","2863793177","2059384","2303","1","","0"
"2021-04-23 00:02:03","3170000","0","2866011889","2218712","2303","0","","0"
"2021-04-24 00:02:03","3170000","0","2868068720","2056831","2304","1","","0"
"2021-04-25 00:02:03","3170000","0","2870284869","2216149","2305","1","","0"
"2021-04-26 00:02:04","3180000","10000","2873099663","2814794","2306","1","","0"
"2021-04-27 00:02:02","3180000","0","2875767995","2668332","2306","0","","0"
"2021-04-28 00:02:02","3180000","0","2878534285","2766290","2307","1","","0"
"2021-04-29 00:02:03","3180000","0","2880735954","2201669","2308","1","","0"
"2021-04-30 00:02:02","3190000","10000","2883168573","2432619","2308","0","","0"
"2021-05-01 00:02:03","3190000","0","2885737372","2568799","2309","1","","0"
"2021-05-02 00:02:02","3190000","0","2887808422","2071050","2310","1","","0"
"2021-05-03 00:02:04","3190000","0","2890561035","2752613","2311","1","","0"
"2021-05-04 00:02:03","3190000","0","2892731345","2170310","2311","0","","0"
"2021-05-05 00:02:03","3200000","10000","2896080168","3348823","2312","1","","0"
"2021-05-06 00:02:03","3200000","0","2898795693","2715525","2313","1","","0"
"2021-05-07 00:02:03","3200000","0","2901798721","3003028","2313","0","","0"
"2021-05-08 00:02:03","3200000","0","2903832347","2033626","2314","1","","0"
"2021-05-09 00:02:02","3210000","10000","2905916482","2084135","2315","1","","0"
"2021-05-10 00:02:04","3210000","0","2908670976","2754494","2316","1","","0"
"2021-05-11 00:02:03","3210000","0","2911919492","3248516","2316","0","","0"
"2021-05-12 00:02:03","3210000","0","2913845240","1925748","2317","1","","0"
"2021-05-13 00:02:02","3210000","0","2916182787","2337547","2318","1","","0"
"2021-05-14 00:02:03","3210000","0","2918700019","2517232","2318","0","","0"
"2021-05-15 00:02:03","3220000","10000","2920844001","2143982","2319","1","","0"
"2021-05-16 00:02:04","3220000","0","2923234297","2390296","2320","1","","0"
"2021-05-17 00:02:02","3220000","0","2926172487","2938190","2321","1","","0"
"2021-05-18 00:02:03","3220000","0","2929235298","3062811","2321","0","","0"
"2021-05-19 00:02:02","3230000","10000","2931793992","2558694","2322","1","","0"
"2021-05-20 00:02:02","3230000","0","2934604483","2810491","2323","1","","0"
"2021-05-21 00:02:03","3230000","0","2937340888","2736405","2323","0","","0"
"2021-05-22 00:02:03","3230000","0","2939717718","2376830","2324","1","","0"
"2021-05-23 00:02:04","3230000","0","2942229000","2511282","2325","1","","0"
"2021-05-24 00:02:03","3240000","10000","2944905311","2676311","2326","1","","0"
"2021-05-25 00:02:03","3240000","0","2947355680","2450369","2326","0","","0"
"2021-05-26 00:02:02","3240000","0","2950295695","2940015","2327","1","","0"
"2021-05-27 00:02:03","3240000","0","2952702271","2406576","2328","1","","0"
"2021-05-28 00:02:03","3240000","0","2955204930","2502659","2328","0","","0"
"2021-05-29 00:02:03","3240000","0","2957527583","2322653","2329","1","","0"
"2021-05-30 00:02:04","3240000","0","2959708688","2181105","2330","1","","0"
"2021-05-31 00:02:03","3250000","10000","2962447334","2738646","2331","1","","0"
"2021-06-01 00:02:03","3250000","0","2964944301","2496967","2331","0","","0"
"2021-06-02 00:02:02","3250000","0","2968012047","3067746","2332","1","","0"
"2021-06-03 00:02:02","3250000","0","2970510800","2498753","2333","1","","0"
"2021-06-04 00:02:03","3250000","0","2973103362","2592562","2333","0","","0"
"2021-06-05 00:02:02","3260000","10000","2975442894","2339532","2334","1","","0"
"2021-06-06 00:02:02","3260000","0","2977742163","2299269","2335","1","","0"
"2021-06-07 00:02:02","3260000","0","2980440401","2698238","2336","1","","0"
"2021-06-08 00:02:02","3260000","0","2983419716","2979315","2336","0","","0"
"2021-06-09 00:02:01","3260000","0","2985681554","2261838","2337","1","","0"
"2021-06-10 00:02:02","3260000","0","2988098699","2417145","2338","1","","0"
"2021-06-11 00:02:03","3260000","0","2990293637","2194938","2338","0","","0"
"2021-06-12 00:02:03","3270000","10000","2992395660","2102023","2339","1","","0"
"2021-06-13 00:02:03","3270000","0","2994479825","2084165","2340","1","","0"
"2021-06-14 00:02:02","3270000","0","2997114907","2635082","2341","1","","0"
"2021-06-15 00:02:03","3270000","0","2999973647","2858740","2341","0","","0"
"2021-06-16 00:02:02","3270000","0","3001954113","1980466","2342","1","","0"
"2021-06-17 00:02:02","3270000","0","3004043724","2089611","2343","1","","0"
"2021-06-18 00:02:02","3270000","0","3006313567","2269843","2343","0","","0"
"2021-06-19 00:02:02","3270000","0","3008146600","1833033","2344","1","","0"
"2021-06-20 00:02:02","3270000","0","3010132686","1986086","2345","1","","0"
"2021-06-21 00:02:02","3280000","10000","3012671800","2539114","2346","1","","0"
"2021-06-22 00:02:02","3280000","0","3015621377","2949577","2346","0","","0"
"2021-06-23 00:02:03","3280000","0","3017685368","2063991","2347","1","","0"
"2021-06-24 00:02:02","3280000","0","3019916045","2230677","2348","1","","0"
"2021-06-25 00:02:02","3280000","0","3022187582","2271537","2348","0","","0"
"2021-06-26 00:02:03","3280000","0","3024336884","2149302","2349","1","","0"
"2021-06-27 00:02:03","3280000","0","3026344480","2007596","2350","1","","0"
"2021-06-28 00:02:03","3290000","10000","3028944651","2600171","2351","1","","0"
"2021-06-29 00:02:03","3290000","0","3031737500","2792849","2351","0","","0"
"2021-06-30 00:02:02","3290000","0","3033515294","1777794","2352","1","","0"
"2021-07-01 00:02:03","3290000","0","3035741281","2225987","2353","1","","0"
"2021-07-02 00:02:02","3290000","0","3037941693","2200412","2353","0","","0"
"2021-07-03 00:02:03","3290000","0","3039969548","2027855","2354","1","","0"
"2021-07-04 00:02:03","3290000","0","3042060428","2090880","2355","1","","0"
"2021-07-05 00:02:03","3300000","10000","3044434373","2373945","2356","1","","0"
"2021-07-06 00:02:03","3300000","0","3046229317","1794944","2356","0","","0"
"2021-07-07 00:02:02","3300000","0","3049302425","3073108","2357","1","","0"
"2021-07-08 00:02:03","3300000","0","3051431624","2129199","2358","1","","0"
"2021-07-09 00:02:03","3300000","0","3053710441","2278817","2359","1","","0"
"2021-07-10 00:02:03","3300000","0","3056088981","2378540","2359","0","","0"
"2021-07-11 00:02:02","3310000","10000","3058122542","2033561","2360","1","","0"
"2021-07-12 00:02:02","3310000","0","3060694772","2572230","2361","1","","0"
"2021-07-13 00:02:01","3310000","0","3062969364","2274592","2361","0","","0"
"2021-07-14 00:02:02","3310000","0","3065437142","2467778","2362","1","","0"
"2021-07-15 00:02:03","3310000","0","3067470170","2033028","2363","1","","0"
"2021-07-16 00:02:03","3310000","0","3069762699","2292529","2363","0","","0"
"2021-07-17 00:02:01","3310000","0","3071656120","1893421","2364","1","","0"
"2021-07-18 00:02:01","3320000","10000","3073457820","1801700","2365","1","","0"
"2021-07-19 00:02:03","3320000","0","3075711034","2253214","2366","1","","0"
"2021-07-20 00:02:03","3320000","0","3078343422","2632388","2366","0","","0"
"2021-07-21 00:02:02","3320000","0","3080261817","1918395","2367","1","","0"
"2021-07-22 00:02:02","3320000","0","3082239280","1977463","2368","1","","0"
"2021-07-23 00:02:02","3320000","0","3084392306","2153026","2368","0","","0"
"2021-07-24 00:02:01","3320000","0","3086498084","2105778","2369","1","","0"
"2021-07-25 00:02:02","3320000","0","3088779329","2281245","2370","1","","0"
"2021-07-26 00:02:02","3330000","10000","3091007062","2227733","2371","1","","0"
"2021-07-27 00:02:02","3330000","0","3093662877","2655815","2371","0","","0"
"2021-07-28 00:02:03","3330000","0","3095693509","2030632","2372","1","","0"
"2021-07-29 00:02:02","3330000","0","3098144197","2450688","2373","1","","0"
"2021-07-30 00:02:02","3330000","0","3100656546","2512349","2373","0","","0"
"2021-07-31 00:02:02","3330000","0","3102930178","2273632","2374","1","","0"
"2021-08-01 00:02:02","3330000","0","3105155382","2225204","2375","1","","0"
"2021-08-02 00:02:02","3340000","10000","3107677181","2521799","2376","1","","0"
"2021-08-03 00:02:01","3340000","0","3110403290","2726109","2376","0","","0"
"2021-08-04 00:02:02","3340000","0","3112943304","2540014","2377","1","","0"
"2021-08-05 00:02:01","3340000","0","3115225447","2282143","2378","1","","0"
"2021-08-06 00:02:02","3340000","0","3117736184","2510737","2378","0","","0"
"2021-08-07 00:02:02","3340000","0","3119621704","1885520","2379","1","","0"
"2021-08-08 00:02:02","3340000","0","3122544931","2923227","2380","1","","0"
"2021-08-09 00:02:02","3350000","10000","3125091378","2546447","2381","1","","0"
"2021-08-10 00:02:03","3350000","0","3127878181","2786803","2382","1","","0"
"2021-08-11 00:02:02","3350000","0","3127878181","0","2382","0","","0"
"2021-08-12 00:02:02","3350000","0","3133437949","5559768","2383","1","","0"
"2021-08-13 00:02:02","3350000","0","3136168196","2730247","2383","0","","0"
"2021-08-14 00:02:03","3360000","10000","3139177152","3008956","2384","1","","0"
"2021-08-15 00:02:02","3360000","0","3142028222","2851070","2384","0","","0"
"2021-08-16 00:02:03","3360000","0","3144804041","2775819","2385","1","","0"
"2021-08-17 00:02:03","3360000","0","3146614777","1810736","2385","0","","0"